www.pogodaiklimat.ru

Погода и климат >> Архив погоды >> Пакистан >> Рохри


ПОГОДА в Рохри

  • Прогноз погоды в Рохри
  • Монитор погоды в Рохри

АРХИВ ПОГОДЫ в Рохри

Время (UTC), дата Ветер
(напр.,м/с)
 
Видим.   Явления Облачность Т
(С)
Тd
(С)
f
(%)
Тe
(С)
Тes
(С)
Комфортность P
(гПа)
Po
(гПа)
Тmin
(С)
Tmax
(С)
R
(мм)
R24
(мм)
S
(см)
18 10.02 штиль 0 4000 м ясно +16.0 +8.1 59 +16 +16 1021.4 1013.3
21 10.02 штиль 0 4000 м мгла ясно +13.0 +6.8 66 +13 +13 1020.6 1012.4
00 11.02 штиль 0 4000 м мгла ясно +10.0 +3.1 62 +10 +10 1019.3 1011.0
03 11.02 штиль 0 4000 м мгла ясно +12.0 +7.9 76 +12 +13 1020.6 1012.4 +10.1
06 11.02 штиль 0 4000 м 4/0
[Ac trans]
+18.0 +8.3 53 +18 +29 1021.7 1013.7
09 11.02 штиль 0 4000 м 4/0
[Ac trans]
+22.0 +9.0 43 +23 +34 комфорт 1020.2 1012.3
12 11.02 СВ 1 4000 м 4/0
[Ac trans]
+22.0 +9.0 43 +23 +24 комфорт 1018.8 1010.9 +22.5
15 11.02 штиль 0 4000 м 4/0
[Ac trans]
+19.0 +9.6 54 +20 +20 1019.7 1011.7
18 11.02 штиль 0 4000 м ясно +17.0 +11.5 70 +17 +17 1020.8 1012.7
21 11.02 штиль 0 4000 м ясно +14.0 +8.0 67 +14 +14 1019.6 1011.4
00 12.02 штиль 0 2000 м мгла ясно +10.0 +5.7 75 +9 +9 1019.5 1011.2
03 12.02 штиль 0 2000 м мгла ясно +13.0 +9.1 77 +13 +14 1021.0 1012.8 +10.0
06 12.02 штиль 0 4000 м ясно +19.0 +11.8 63 +20 +35 опасность
простуды
1022.1 1014.1
09 12.02 штиль 0 4000 м ясно +23.0 +7.9 38 +24 +38 комфорт 1020.6 1012.7
12 12.02 штиль 0 4000 м ясно +23.0 +7.9 38 +24 +25 комфорт 1019.6 1011.7 +24.1
15 12.02 штиль 0 4000 м ясно +19.0 +9.6 54 +20 +20 1020.3 1012.3
18 12.02 штиль 0 4000 м ясно +16.0 +10.4 69 +16 +16 1021.8 1013.7
21 12.02 штиль 0 2000 м мгла ясно +13.0 +9.1 77 +13 +13 1020.5 1012.3
00 13.02 штиль 0 2000 м мгла ясно +10.0 +5.7 75 +9 +9 1020.1 1011.8
03 13.02 СВ 1 2000 м мгла 8/4 900 м
[Sc Ac trans]
+14.0 +8.0 67 +15 +16 1021.4 1013.2 +10.1
06 13.02 СВ 1 4000 м ясно +18.0 +10.6 62 +20 +30 1022.1 1014.1
09 13.02 СВ 2 4000 м ясно +22.0 +9.0 43 +23 +34 комфорт 1019.0 1011.1
12 13.02 СВ 1 4000 м ясно +22.0 +9.0 43 +23 +24 комфорт 1018.0 1010.1 +23.1
15 13.02 СВ 1 4000 м 4/0
[Ac trans]
+20.0 +10.9 56 +23 +23 комфорт 1019.2 1011.3
18 13.02 СВ 1 4000 м 8/0
[Ac cuf]
+18.0 +10.6 62 +20 +20 1020.7 1012.7
21 13.02 штиль 0 4000 м мгла 4/0
[Ac trans]
+15.0 +9.2 68 +15 +15 1019.4 1011.3
00 14.02 штиль 0 4000 м мгла 4/0
[Ac trans]
+11.0 +4.3 63 +11 +11 1019.3 1011.0
03 14.02 СВ 1 4000 м мгла ясно +14.0 +8.0 67 +15 +17 1020.1 1011.9 +10.1
06 14.02 СВ 1 4000 м ясно +21.0 +4.8 35 +23 +37 комфорт 1020.4 1012.5
09 14.02 СВ 1 4000 м ясно +25.0 +2.3 23 +24 +37 комфорт 1016.1 1008.3
12 14.02 СЗ 1 4000 м ясно +25.5 +3.3 24 +25 +26 комфорт 1012.3 1004.7 +26.1
15 14.02 штиль 0 4000 м ясно +22.0 +6.4 36 +23 +23 комфорт 1013.8 1000.0
18 14.02 штиль 0 4000 м мгла ясно +16.0 +8.1 59 +16 +16 1014.8 1000.0
21 14.02 штиль 0 4000 м мгла ясно +13.5 +7.4 67 +13 +13 1014.2 1000.0
00 15.02 штиль 0 1000 м мгла ясно +12.0 +5.6 65 +12 +12 1014.6 1006.5
03 15.02 штиль 0 1000 м мгла ясно +10.0 +5.7 75 +9 +11 1016.7 1008.5 +8.1
06 15.02 штиль 0 4000 м мгла ясно +18.5 +9.0 54 +19 +34 опасность
простуды
1018.7 1000.0
09 15.02 штиль 0 10 км ясно +24.0 +6.8 33 +24 +39 комфорт 1016.9 1000.0
12 15.02 СВ 1 4000 м ясно +25.5 +3.3 24 +25 +26 комфорт 1014.9 1007.2 +26.1
15 15.02 штиль 0 4000 м ясно +20.0 +8.6 48 +21 +21 комфорт 1015.3 1007.3
18 15.02 штиль 0 4000 м мгла ясно +16.5 +10.9 69 +16 +16 1016.7 1000.0
21 15.02 штиль 0 4000 м мгла ясно +15.0 +9.2 68 +15 +15 1016.3 1000.0
00 16.02 штиль 0 4000 м мгла ясно +13.0 +6.8 66 +13 +13 1016.8 1008.7
03 16.02 СВ 1 4000 м мгла ясно +12.0 +7.9 76 +13 +15 1018.2 1010.1 +9.1
06 16.02 ЮВ 1 4000 м мгла ясно +19.5 +7.9 47 +22 +36 комфорт 1019.7 1000.0
09 16.02 штиль 0 10 км ясно +25.5 +6.4 29 +25 +40 комфорт 1017.8 1000.0
12 16.02 штиль 0 10 км 5/0
[Ac trans]
+25.0 +5.5 29 +25 +26 комфорт 1015.8 1008.0 +25.1
15 16.02 штиль 0 4000 м 6/0
[As op]
+21.5 +10.6 50 +23 +23 комфорт 1016.5 1000.0
18 16.02 штиль 0 4000 м 6/0
[As op]
+19.0 +11.8 63 +20 +20 1017.5 1009.4
21 16.02 штиль 0 4000 м 6/0
[As op]
+17.5 +10.0 61 +18 +18 1016.8 1000.0
00 17.02 штиль 0 4000 м 5/0
[As op]
+14.5 +10.7 78 +14 +14 1017.1 1009.1
03 17.02 штиль 0 4000 м 5/0
[Ac trans]
+14.0 +10.2 78 +14 +15 1016.0 1007.9 +12.1
06 17.02 штиль 0 4000 м 8/0
[Ac trans]
+17.0 +9.4 61 +17 +25 1015.4 1000.0
09 17.02 ЮЗ 1 4000 м 8/0
[Ac trans]
+20.5 +9.3 49 +23 +30 комфорт 1013.1 1005.1
12 17.02 штиль 0 4000 м 5/0
[Ac trans]
+22.0 +11.3 51 +24 +25 комфорт 1009.0 1001.2 +22.5
15 17.02 штиль 0 4000 м 8/0
[Ac trans]
+20.0 +13.0 64 +22 +22 комфорт 1008.6 1000.0

 

Местоположение метеостанции Рохри (Пакистан): широта 27.67 долгота 68.90 высота над уровнем моря 68 м.

В архиве по умолчанию представлена погода в Рохри за последнюю неделю. Архивные данные за месяц целиком и за предыдущие месяцы, начиная с января 2011 года, Вы можете получить, выбрав интересующий диапазон дат из раскрывающегося списка и нажав кнопку "Ввод!".


*Определитесь, кто Вы:
робот инопланетянин человек

Внимание! Время в таблицах - всемирное. Для получения местного времени необходимо прибавить поправку, которая равна 5 ч.

Смотрите также архив погоды в соседних городах и на ближайших метеорологических станциях:

Погода в Джейкобабаде (Пакистан) (82 км)
Погода в Пад Идан (Пакистан) (119 км)
Погода в Навабшахе (Пакистан) (166 км)
Погода в Ханпуре (Пакистан) (206 км)
Погода в Джайсалмере (Раджастхан, Индия) (217 км)
Погода в Хуздаре (Пакистан) (224 км)
Погода в Сиби (Пакистан) (232 км)
Погода в Чоре (Пакистан) (255 км)
Погода в Бархане (Пакистан) (258 км)
Погода в Хайдарабате (Пакистан) (259 км)

Пояснения к столбцам:

Ветер - указаны скорость ветра в м/с - средняя за 10 мин, порывы в срок и между сроками (в фигурных скобках) и направление, откуда дует ветер: С - северный, СВ - северо-восточный, В - восточный, ЮВ - юго-восточный, Ю - южный, ЮЗ - юго-западный, З - западный, СЗ - северо-западный.
Видимость - горизонтальная дальность видимости в метрах или километрах. При видимости от 1 до 10 км при отсутствии осадков обычно наблюдается дымка, при ухудшении видимости до 1 км и менее - туман. В сухую погоду видимость может ухудшаться дымом, пылью или мглою.
Явления - указаны атмосферные явления, наблюдавшиеся в срок или в последний час перед сроком; фигурными скобками обозначены явления, наблюдавшиеся между сроками (за 1-3 часа до срока); квадратными скобками обозначены град или гололедные отложения с указанием их диаметра в мм.
Облачность - указаны через наклонную черту общая и нижняя облачность в баллах и высота нижней границы облаков в метрах; квадратными скобками обозначены формы облаков: Ci - перистые, Cs - перисто-слоистые, Cc - перисто-кучевые, Ac - высококучевые, As - высокослоистые, Sc - слоисто-кучевые, Ns - слоисто-дождевые, Cu - кучевые, Cb - кучево-дождевые. Подробнее классификацию облаков см. в Атласе облаков (PDF).
T - Температура воздуха - температура, измеренная на высоте 2 м над землей.
Td - Температура точки росы - температура, при понижении до которой содержащийся в воздухе водяной пар достигнет насыщения.
f - Относительная влажность воздуха - влажноcть воздуха, измеренная на высоте 2 м над землей.
Te - Эффективная температура - температура, которую ощущает одетый по сезону человек в тени. Характеристика душности погоды. При расчете учитывается влияние влажности воздуха и скорости ветра на теплоощущения человека.
Tes - Эффективная температура на солнце - температура, которую ощущает человек, с поправкой на солнечный нагрев. Характеристика знойности погоды. Зависит от высоты солнца над горизонтом, облачности и скорости ветра. Ночью, в пасмурную погоду, а также при ветре 12 м/с и более поправка равна нулю.
P - Атмосферное давление - приведенное к уровню моря атмосферное давление.
Po - Атмосферное давление - измеренное на уровне метеостанции атмосферное давление.
Tmin - Минимальная температура - минимум температуры воздуха на высоте 2 м над землей.
Tmax - Максимальная температура - максимум температуры воздуха на высоте 2 м над землей.
R - Количество осадков - Количество выпавших осадков за период времени, мм. При наведении курсора мыши на число - период времени, за который выпало указанное количество осадков.
R24 - Количество осадков - Количество выпавших осадков за 24 часа, мм.
S - Снежный покров - Высота снежного покрова, см. При наведении курсора мыши на число - состояние снежного покрова и степень покрытия местности в баллах.